SCP
0 0 0 0 0 -0 -0 0 0 0 0 0 0 0 0 0 0 0 0 0 0 0 0 0 0 0 0 0 0 0 0 0 0 0 0 0 0 0 0 0 0 0 0
-0 0 -0 -0 0 0 0 0 0 0 0 0 0 0 0 0 0 0 0 0 0 0 0 0 0 0 0 0 0 0 0 0 0 0 0 0 0 0 0 0 0 0 0
0 -0 -0 0 0 0 0 0 0 -0 -0 -0 0 0 0 0 0 0 0 0 0 0 0 0 0 0 0 0 0 0 0 0 0 0 0 0 0 0 0 0 0 0 0
0 0 -0 -0 -0 -0 0 0 0 0 0 -0 -0 0 0 0 0 0 0 0 0 0 0 0 0 0 0 0 0 0 0 0 0 0 0 0 0 0 0 0 0 0 0
0 -0 -0 -0 -0 -0 -0 -0 0 -0 0 0 0 -0 0 0 0 0 0 0 0 0 0 0 0 0 0 0 0 0 0 0 0 0 0 0 0 0 0 0 0 0 0
0 -0 -0 -0 -0 -0 -0 -0 -0 -0 -0 -0 0 0 -0 -0 0 0 0 0 0 0 0 0 0 0 0 0 0 0 0 0 0 0 0 0 0 0 0 0 0 0 0
-0 -0 -0 -0 -0 -0 0 -0 -0 -0 -0 -0 -0 -0 0 0 -0 -0 0 0 0 0 0 0 0 0 0 0 0 0 0 0 0 0 0 0 0 0 0 0 0 0 0
-0 -0 -0 -0 -0 0 0 0 0 -0 0 0 0 0 0 0 -0 -0 -0 0 0 0 0 0 0 0 0 0 0 0 0 0 0 0 0 0 0 0 0 0 0 0 0
-0 0 -0 0 -0 -0 -0 -0 0 0 0 0 0 0 0 0 0 0 -0 0 0 0 0 0 0 0 0 0 0 0 0 0 0 0 0 0 0 0 0 0 0 0 0
0 0 0 0 0 0 0 0 -0 -0 -0 -0 0 0 0 0 0 0 0 0 0 0 0 0 0 0 0 0 0 0 0 0 0 0 0 0 0 0 0 0 0 0 0
0 0 0 0 0 0 0 0 -0 -0 -0 0 0 0 0 0 0 0 0 0 0 0 0 0 0 0 0 0 0 0 0 0 0 0 0 0 0 0 0 0 0 0 0
0 0 0 0 0 0 0 0 0 -0 -0 0 0 0 -0 0 -0 0 0 0 0 0 0 0 0 0 0 0 0 0 0 0 0 0 0 0 0 0 0 0 0 0 0
0 0 0 0 0 0 0 0 0 0 0 0 0 0 0 0 0 -0 0 0 0 0 0 0 0 0 0 0 0 0 0 0 0 0 0 0 0 0 0 0 0 0 0
0 0 0 0 0 0 0 0 0 0 0 0 0 0 0 0 0 0 0 0 0 0 0 0 0 0 0 0 0 0 0 0 0 0 0 0 0 0 0 0 0 0 0
0 0 0 0 0 0 0 0 0 0 0 0 0 0 0 0 0 0 0 0 0 0 0 0 0 0 0 0 0 0 0 0 0 0 0 0 0 0 0 0 0 0 0
0 0 0 0 0 0 0 0 0 0 0 0 0 0 0 0 0 0 0 0 0 -0 0 0 0 0 0 0 0 0 0 0 0 0 0 0 0 0 0 0 0 0 0
0 0 0 0 0 0 0 0 0 0 0 0 0 0 0 0 0 0 0 0 0 0 0 0 0 0 0 0 0 0 0 0 0 0 0 0 0 0 0 0 0 0 0
0 0 0 0 0 0 0 0 0 0 0 0 0 0 0 0 0 0 0 0 0 0 0 0 0 0 0 0 0 0 0 0 0 0 0 0 0 0 0 0 0 0 0
0 0 0 0 0 0 0 0 0 0 0 0 0 0 0 0 0 0 0 0 0 0 0 0 0 0 0 0 0 0 0 0 0 0 0 0 0 0 0 0 0 0 0
0 0 0 0 0 0 0 0 0 0 0 0 0 0 0 0 0 0 0 0 0 0 0 0 0 0 0 0 0 0 0 0 0 0 0 0 0 0 0 0 0 0 0
0 0 0 0 0 0 0 0 0 0 0 0 0 0 0 0 0 0 0 0 0 0 0 0 0 0 0 0 0 0 0 0 0 0 0 0 0 0 0 0 0 0 0
0 0 0 0 0 0 0 0 0 0 0 0 0 0 0 0 0 0 0 0 0 0 0 0 0 0 0 0 0 0 0 0 0 0 0 0 0 0 0 0 0 0 0
0 0 0 0 0 0 0 0 0 0 0 0 0 0 0 0 0 0 0 0 0 0 0 0 0 0 0 0 0 0 0 0 0 0 0 0 0 0 0 0 0 0 0
0 0 0 0 0 0 0 0 0 0 0 0 0 -0 0 0 0 0 0 0 0 0 0 0 0 0 0 0 0 0 0 0 0 0 0 0 0 0 0 0 0 0 0
0 0 0 0 0 0 0 0 0 -0 0 0 0 0 -0 -0 -0 -0 -0 0 0 0 0 0 0 0 0 0 0 0 0 0 0 0 0 0 0 0 0 0 0 0 0
0 0 0 0 0 0 0 0 0 0 -0 -0 0 -0 -0 -0 -0 -0 -0 -0 0 0 0 0 0 0 0 0 0 0 0 0 0 0 0 0 0 0 0 0 0 0 0
Wind_Speed_500mb
48 48 47 50 52 50 43 36 39 44 44 47 55 60 69 79 89 103 113 116 114 112 113 111 107 103 99 93 85 76 71 64 58 55 55 55 54 49 39 32 26 21 25
57 51 49 46 46 51 52 49 44 40 46 54 56 63 67 74 82 94 105 121 122 117 118 114 113 111 107 101 94 87 80 71 68 64 59 60 59 54 46 40 31 27 28
55 59 59 52 47 45 49 55 52 50 50 44 47 63 67 76 81 89 94 109 124 120 119 118 117 118 115 111 105 96 88 82 75 72 67 66 64 59 54 47 38 31 31
59 57 61 62 62 61 51 44 51 55 55 57 55 53 55 63 77 86 96 100 111 118 125 120 118 123 122 121 112 105 98 92 88 82 75 69 68 63 58 52 45 35 36
64 67 65 62 62 65 66 64 57 49 52 58 59 61 61 63 70 78 88 97 104 111 119 123 123 127 126 127 123 117 109 102 97 91 86 79 75 72 68 60 51 42 41
58 63 68 76 75 70 72 72 71 69 66 60 61 62 65 65 71 75 75 82 95 109 118 122 125 127 133 133 129 121 116 112 107 100 93 89 82 77 71 63 53 44 40
56 56 64 74 80 83 81 80 76 78 76 72 71 66 63 67 62 67 70 74 79 94 109 116 121 127 134 136 135 126 122 116 109 101 97 91 85 79 71 66 59 50 43
69 71 73 75 80 85 88 89 89 87 86 86 81 77 76 77 67 57 61 70 80 86 99 110 118 123 132 139 138 133 132 123 116 107 96 85 78 73 69 62 55 49 44
85 83 83 84 83 84 88 92 97 101 100 98 97 90 84 84 81 67 56 63 80 89 92 104 112 125 130 131 136 138 134 129 120 110 99 91 84 77 67 63 59 53 48
93 96 97 96 97 97 97 99 100 102 111 111 108 105 96 92 83 82 63 62 77 88 89 102 110 119 115 122 120 131 137 139 126 114 101 94 86 79 75 70 63 53 47
88 99 102 103 111 117 118 116 114 113 113 116 121 117 109 98 90 83 80 69 74 81 91 99 107 110 104 111 98 116 134 131 125 111 99 96 88 80 75 80 67 56 50
97 104 110 110 109 112 114 124 124 121 118 120 120 125 120 111 97 87 81 82 71 79 88 95 97 98 94 100 90 102 106 113 114 108 105 101 94 79 85 75 64 54 49
115 120 115 106 103 100 96 100 93 104 104 114 105 102 118 113 104 91 87 80 77 83 90 102 94 90 73 77 86 105 95 107 108 110 109 103 87 86 82 68 57 54 50
110 112 103 93 93 88 84 81 81 82 83 84 81 85 89 84 100 91 90 81 72 72 84 98 92 77 70 81 86 97 94 103 111 113 106 91 82 86 72 64 61 52 47
93 91 88 84 83 82 80 79 78 80 77 81 82 73 73 78 81 66 71 74 63 66 76 93 92 85 69 81 90 102 95 100 101 99 94 91 89 76 70 65 57 51 46
85 83 81 83 84 83 84 88 79 77 79 83 89 91 102 97 83 72 65 59 51 46 75 89 85 86 77 88 91 97 99 99 97 93 89 86 82 74 67 61 56 48 48
78 80 81 79 81 82 82 82 87 81 71 73 74 78 85 91 83 78 70 63 56 48 86 90 85 83 78 87 87 99 98 97 93 90 86 85 76 72 65 57 53 51 43
74 78 81 81 80 80 81 81 80 78 78 76 60 53 54 60 58 69 68 64 59 58 85 85 80 79 78 92 94 95 94 91 84 86 84 82 80 77 69 59 52 43 36
75 79 79 81 82 82 83 83 81 78 74 76 69 56 43 41 48 55 54 71 62 62 73 83 76 74 80 84 93 96 98 91 86 84 84 85 77 66 59 52 46 41 36
70 71 71 75 78 79 77 73 72 69 66 64 61 47 33 38 36 37 50 68 59 56 61 72 73 76 81 85 90 91 96 93 89 86 81 74 63 59 53 42 40 34 29
65 70 64 64 66 70 70 70 67 60 55 49 45 35 37 38 37 29 32 59 53 46 62 73 73 72 65 75 80 85 88 91 87 77 70 63 55 46 40 38 33 31 28
56 53 54 54 53 54 57 58 51 45 43 43 42 39 33 30 29 25 30 44 46 45 50 66 64 61 61 69 71 73 81 78 73 71 62 51 43 39 38 36 32 28 25
46 46 45 45 44 42 42 36 36 39 36 32 29 26 21 13 11 22 30 36 34 31 30 41 53 56 57 54 50 53 65 68 65 56 48 43 40 39 36 32 28 25 24
41 40 41 42 41 41 40 38 34 28 24 20 16 12 6 4 16 24 25 25 23 29 36 41 44 44 37 35 39 46 51 51 46 42 37 34 35 35 32 29 27 25 24
42 41 40 41 42 42 42 40 37 33 30 25 21 16 13 16 19 15 17 20 25 32 37 37 36 36 41 49 53 52 48 41 35 33 32 36 36 32 27 25 24 24 27
47 44 43 42 43 43 43 42 40 37 35 31 27 24 23 24 26 27 30 34 39 41 42 43 45 46 47 46 42 37 34 32 32 35 34 32 29 26 24 20 20 24 30
Wind_Direction_500mb
8 2 358 358 358 3 355 331 310 299 291 282 276 270 267 261 253 246 244 242 238 236 235 234 232 231 230 229 228 229 230 229 227 228 222 223 220 222 230 231 239 253 268
358 355 357 354 351 352 351 350 344 319 298 289 279 270 265 262 260 253 246 245 241 236 237 236 234 232 230 230 229 229 231 231 230 231 226 223 222 226 230 233 240 248 263
353 351 348 348 348 345 342 342 341 335 333 312 286 277 272 267 261 258 255 250 247 244 239 238 237 237 233 230 228 228 228 230 231 231 227 225 226 226 229 233 239 246 260
345 344 343 343 344 343 341 333 330 332 331 328 324 299 278 273 267 262 259 254 252 248 245 241 239 240 238 235 231 230 229 227 228 226 226 226 226 226 227 233 237 241 253
335 336 336 334 334 334 333 334 332 326 319 320 320 319 309 287 275 270 264 260 256 254 250 246 241 241 240 239 236 233 230 227 226 225 225 224 225 226 228 232 235 240 251
322 322 324 325 327 329 328 326 326 326 324 314 301 307 306 306 292 277 271 266 262 256 252 249 245 242 241 239 237 236 237 233 229 226 227 229 228 230 230 231 238 244 246
311 310 314 316 317 318 320 321 322 322 321 320 316 308 297 297 300 288 272 266 264 261 257 253 250 247 244 240 238 236 235 235 236 240 234 234 231 231 231 232 235 241 243
305 302 304 306 306 308 310 312 313 313 314 313 313 310 305 296 292 294 276 265 262 259 260 255 253 251 249 243 237 234 234 232 231 231 232 236 236 234 232 233 235 235 236
306 304 303 302 299 299 300 302 304 305 305 305 305 306 304 297 294 288 282 268 261 257 255 258 253 251 250 246 240 235 233 231 229 229 228 228 227 230 228 229 228 228 233
309 306 304 301 298 296 294 293 294 295 298 299 298 297 298 297 295 289 280 268 262 258 256 254 251 251 249 248 244 238 234 230 226 224 223 225 226 228 230 233 229 225 229
304 302 300 298 298 296 296 293 291 290 289 289 291 291 290 290 291 287 281 266 263 255 246 245 247 243 239 241 236 240 239 233 227 225 223 221 221 220 228 229 227 226 228
300 297 296 295 293 293 293 292 291 289 287 284 284 285 286 286 289 286 281 275 263 249 244 243 243 244 243 239 227 229 230 228 227 221 218 217 217 223 228 224 224 226 229
298 296 295 293 291 290 288 288 286 287 286 284 283 281 281 281 283 284 280 274 269 243 241 243 242 246 235 220 216 223 226 226 225 218 216 215 218 229 221 219 222 225 230
299 298 297 295 293 290 286 282 281 279 278 276 275 273 274 274 276 276 275 275 268 256 237 243 239 240 233 227 214 213 217 223 221 219 215 215 221 216 213 218 220 224 232
305 301 299 296 294 292 286 283 279 275 272 274 271 269 270 269 267 271 271 271 268 258 238 234 229 225 227 213 212 207 211 214 212 210 207 216 211 208 209 213 217 224 230
304 301 298 296 294 292 290 288 284 278 275 271 269 267 268 263 266 265 262 264 259 249 230 220 216 220 220 206 203 201 203 207 208 207 212 210 207 205 204 207 215 225 234
306 306 302 296 292 290 288 287 288 291 284 278 272 267 263 262 260 257 261 257 257 237 225 221 217 215 215 202 200 200 194 207 210 209 206 205 203 202 204 208 218 225 230
314 312 308 301 295 292 289 287 286 286 288 289 286 271 265 262 255 249 251 253 249 229 222 215 214 215 208 200 201 199 200 200 203 203 202 202 198 204 204 207 214 222 236
315 312 309 306 303 299 294 289 285 284 283 285 293 292 262 263 259 260 242 234 243 232 220 212 213 208 206 198 201 205 205 201 206 201 203 202 202 201 201 205 216 226 235
315 311 312 309 306 303 299 291 286 283 283 283 288 292 296 283 279 263 232 226 236 234 220 205 204 201 206 211 207 208 205 205 204 204 203 201 196 200 209 211 216 224 240
320 319 322 318 314 312 310 302 302 299 296 293 291 299 286 285 287 268 246 222 231 230 211 205 201 204 216 216 213 211 207 206 205 204 200 195 199 201 202 210 220 231 243
326 329 333 333 333 331 321 315 313 309 309 310 312 301 297 282 265 260 228 208 219 230 219 211 212 216 219 221 219 215 209 205 201 196 193 192 194 198 209 215 223 236 253
343 344 348 350 349 347 346 342 334 325 319 310 309 312 309 310 265 232 222 222 230 233 219 209 210 208 210 214 215 213 203 195 192 190 187 189 195 204 210 217 228 244 265
358 0 1 3 5 5 5 3 1 357 352 344 344 337 324 186 182 182 193 193 193 185 184 186 190 192 192 194 185 179 177 175 176 180 185 189 200 208 213 222 235 251 274
16 17 18 18 19 21 22 24 25 23 23 27 36 47 74 115 122 127 146 155 161 160 159 162 161 157 157 159 162 165 168 169 175 179 183 193 202 209 216 228 244 267 288
32 32 34 35 35 34 34 36 36 35 37 43 53 69 87 97 100 109 118 125 130 132 133 134 136 141 147 150 153 158 163 169 175 184 190 198 206 214 227 245 257 279 296
Wind_Speed_850mb
48 48 47 50 52 50 43 36 39 44 44 47 55 60 69 79 89 103 113 116 114 112 113 111 107 103 99 93 85 76 71 64 58 55 55 55 54 49 39 32 26 21 25
57 51 49 46 46 51 52 49 44 40 46 54 56 63 67 74 82 94 105 121 122 117 118 114 113 111 107 101 94 87 80 71 68 64 59 60 59 54 46 40 31 27 28
55 59 59 52 47 45 49 55 52 50 50 44 47 63 67 76 81 89 94 109 124 120 119 118 117 118 115 111 105 96 88 82 75 72 67 66 64 59 54 47 38 31 31
59 57 61 62 62 61 51 44 51 55 55 57 55 53 55 63 77 86 96 100 111 118 125 120 118 123 122 121 112 105 98 92 88 82 75 69 68 63 58 52 45 35 36
64 67 65 62 62 65 66 64 57 49 52 58 59 61 61 63 70 78 88 97 104 111 119 123 123 127 126 127 123 117 109 102 97 91 86 79 75 72 68 60 51 42 41
58 63 68 76 75 70 72 72 71 69 66 60 61 62 65 65 71 75 75 82 95 109 118 122 125 127 133 133 129 121 116 112 107 100 93 89 82 77 71 63 53 44 40
56 56 64 74 80 83 81 80 76 78 76 72 71 66 63 67 62 67 70 74 79 94 109 116 121 127 134 136 135 126 122 116 109 101 97 91 85 79 71 66 59 50 43
69 71 73 75 80 85 88 89 89 87 86 86 81 77 76 77 67 57 61 70 80 86 99 110 118 123 132 139 138 133 132 123 116 107 96 85 78 73 69 62 55 49 44
85 83 83 84 83 84 88 92 97 101 100 98 97 90 84 84 81 67 56 63 80 89 92 104 112 125 130 131 136 138 134 129 120 110 99 91 84 77 67 63 59 53 48
93 96 97 96 97 97 97 99 100 102 111 111 108 105 96 92 83 82 63 62 77 88 89 102 110 119 115 122 120 131 137 139 126 114 101 94 86 79 75 70 63 53 47
88 99 102 103 111 117 118 116 114 113 113 116 121 117 109 98 90 83 80 69 74 81 91 99 107 110 104 111 98 116 134 131 125 111 99 96 88 80 75 80 67 56 50
97 104 110 110 109 112 114 124 124 121 118 120 120 125 120 111 97 87 81 82 71 79 88 95 97 98 94 100 90 102 106 113 114 108 105 101 94 79 85 75 64 54 49
115 120 115 106 103 100 96 100 93 104 104 114 105 102 118 113 104 91 87 80 77 83 90 102 94 90 73 77 86 105 95 107 108 110 109 103 87 86 82 68 57 54 50
110 112 103 93 93 88 84 81 81 82 83 84 81 85 89 84 100 91 90 81 72 72 84 98 92 77 70 81 86 97 94 103 111 113 106 91 82 86 72 64 61 52 47
93 91 88 84 83 82 80 79 78 80 77 81 82 73 73 78 81 66 71 74 63 66 76 93 92 85 69 81 90 102 95 100 101 99 94 91 89 76 70 65 57 51 46
85 83 81 83 84 83 84 88 79 77 79 83 89 91 102 97 83 72 65 59 51 46 75 89 85 86 77 88 91 97 99 99 97 93 89 86 82 74 67 61 56 48 48
78 80 81 79 81 82 82 82 87 81 71 73 74 78 85 91 83 78 70 63 56 48 86 90 85 83 78 87 87 99 98 97 93 90 86 85 76 72 65 57 53 51 43
74 78 81 81 80 80 81 81 80 78 78 76 60 53 54 60 58 69 68 64 59 58 85 85 80 79 78 92 94 95 94 91 84 86 84 82 80 77 69 59 52 43 36
75 79 79 81 82 82 83 83 81 78 74 76 69 56 43 41 48 55 54 71 62 62 73 83 76 74 80 84 93 96 98 91 86 84 84 85 77 66 59 52 46 41 36
70 71 71 75 78 79 77 73 72 69 66 64 61 47 33 38 36 37 50 68 59 56 61 72 73 76 81 85 90 91 96 93 89 86 81 74 63 59 53 42 40 34 29
65 70 64 64 66 70 70 70 67 60 55 49 45 35 37 38 37 29 32 59 53 46 62 73 73 72 65 75 80 85 88 91 87 77 70 63 55 46 40 38 33 31 28
56 53 54 54 53 54 57 58 51 45 43 43 42 39 33 30 29 25 30 44 46 45 50 66 64 61 61 69 71 73 81 78 73 71 62 51 43 39 38 36 32 28 25
46 46 45 45 44 42 42 36 36 39 36 32 29 26 21 13 11 22 30 36 34 31 30 41 53 56 57 54 50 53 65 68 65 56 48 43 40 39 36 32 28 25 24
41 40 41 42 41 41 40 38 34 28 24 20 16 12 6 4 16 24 25 25 23 29 36 41 44 44 37 35 39 46 51 51 46 42 37 34 35 35 32 29 27 25 24
42 41 40 41 42 42 42 40 37 33 30 25 21 16 13 16 19 15 17 20 25 32 37 37 36 36 41 49 53 52 48 41 35 33 32 36 36 32 27 25 24 24 27
47 44 43 42 43 43 43 42 40 37 35 31 27 24 23 24 26 27 30 34 39 41 42 43 45 46 47 46 42 37 34 32 32 35 34 32 29 26 24 20 20 24 30
Wind_Direction_850mb
8 2 358 358 358 3 355 331 310 299 291 282 276 270 267 261 253 246 244 242 238 236 235 234 232 231 230 229 228 229 230 229 227 228 222 223 220 222 230 231 239 253 268
358 355 357 354 351 352 351 350 344 319 298 289 279 270 265 262 260 253 246 245 241 236 237 236 234 232 230 230 229 229 231 231 230 231 226 223 222 226 230 233 240 248 263
353 351 348 348 348 345 342 342 341 335 333 312 286 277 272 267 261 258 255 250 247 244 239 238 237 237 233 230 228 228 228 230 231 231 227 225 226 226 229 233 239 246 260
345 344 343 343 344 343 341 333 330 332 331 328 324 299 278 273 267 262 259 254 252 248 245 241 239 240 238 235 231 230 229 227 228 226 226 226 226 226 227 233 237 241 253
335 336 336 334 334 334 333 334 332 326 319 320 320 319 309 287 275 270 264 260 256 254 250 246 241 241 240 239 236 233 230 227 226 225 225 224 225 226 228 232 235 240 251
322 322 324 325 327 329 328 326 326 326 324 314 301 307 306 306 292 277 271 266 262 256 252 249 245 242 241 239 237 236 237 233 229 226 227 229 228 230 230 231 238 244 246
311 310 314 316 317 318 320 321 322 322 321 320 316 308 297 297 300 288 272 266 264 261 257 253 250 247 244 240 238 236 235 235 236 240 234 234 231 231 231 232 235 241 243
305 302 304 306 306 308 310 312 313 313 314 313 313 310 305 296 292 294 276 265 262 259 260 255 253 251 249 243 237 234 234 232 231 231 232 236 236 234 232 233 235 235 236
306 304 303 302 299 299 300 302 304 305 305 305 305 306 304 297 294 288 282 268 261 257 255 258 253 251 250 246 240 235 233 231 229 229 228 228 227 230 228 229 228 228 233
309 306 304 301 298 296 294 293 294 295 298 299 298 297 298 297 295 289 280 268 262 258 256 254 251 251 249 248 244 238 234 230 226 224 223 225 226 228 230 233 229 225 229
304 302 300 298 298 296 296 293 291 290 289 289 291 291 290 290 291 287 281 266 263 255 246 245 247 243 239 241 236 240 239 233 227 225 223 221 221 220 228 229 227 226 228
300 297 296 295 293 293 293 292 291 289 287 284 284 285 286 286 289 286 281 275 263 249 244 243 243 244 243 239 227 229 230 228 227 221 218 217 217 223 228 224 224 226 229
298 296 295 293 291 290 288 288 286 287 286 284 283 281 281 281 283 284 280 274 269 243 241 243 242 246 235 220 216 223 226 226 225 218 216 215 218 229 221 219 222 225 230
299 298 297 295 293 290 286 282 281 279 278 276 275 273 274 274 276 276 275 275 268 256 237 243 239 240 233 227 214 213 217 223 221 219 215 215 221 216 213 218 220 224 232
305 301 299 296 294 292 286 283 279 275 272 274 271 269 270 269 267 271 271 271 268 258 238 234 229 225 227 213 212 207 211 214 212 210 207 216 211 208 209 213 217 224 230
304 301 298 296 294 292 290 288 284 278 275 271 269 267 268 263 266 265 262 264 259 249 230 220 216 220 220 206 203 201 203 207 208 207 212 210 207 205 204 207 215 225 234
306 306 302 296 292 290 288 287 288 291 284 278 272 267 263 262 260 257 261 257 257 237 225 221 217 215 215 202 200 200 194 207 210 209 206 205 203 202 204 208 218 225 230
314 312 308 301 295 292 289 287 286 286 288 289 286 271 265 262 255 249 251 253 249 229 222 215 214 215 208 200 201 199 200 200 203 203 202 202 198 204 204 207 214 222 236
315 312 309 306 303 299 294 289 285 284 283 285 293 292 262 263 259 260 242 234 243 232 220 212 213 208 206 198 201 205 205 201 206 201 203 202 202 201 201 205 216 226 235
315 311 312 309 306 303 299 291 286 283 283 283 288 292 296 283 279 263 232 226 236 234 220 205 204 201 206 211 207 208 205 205 204 204 203 201 196 200 209 211 216 224 240
320 319 322 318 314 312 310 302 302 299 296 293 291 299 286 285 287 268 246 222 231 230 211 205 201 204 216 216 213 211 207 206 205 204 200 195 199 201 202 210 220 231 243
326 329 333 333 333 331 321 315 313 309 309 310 312 301 297 282 265 260 228 208 219 230 219 211 212 216 219 221 219 215 209 205 201 196 193 192 194 198 209 215 223 236 253
343 344 348 350 349 347 346 342 334 325 319 310 309 312 309 310 265 232 222 222 230 233 219 209 210 208 210 214 215 213 203 195 192 190 187 189 195 204 210 217 228 244 265
358 0 1 3 5 5 5 3 1 357 352 344 344 337 324 186 182 182 193 193 193 185 184 186 190 192 192 194 185 179 177 175 176 180 185 189 200 208 213 222 235 251 274
16 17 18 18 19 21 22 24 25 23 23 27 36 47 74 115 122 127 146 155 161 160 159 162 161 157 157 159 162 165 168 169 175 179 183 193 202 209 216 228 244 267 288
32 32 34 35 35 34 34 36 36 35 37 43 53 69 87 97 100 109 118 125 130 132 133 134 136 141 147 150 153 158 163 169 175 184 190 198 206 214 227 245 257 279 296